Regional Weather Roundup
Issued by NWS Sioux Falls, SD

Home | Current Version | Previous Version | Text Only | Print | Product List | Glossary Off
Versions: 1 2 3 4 5 6 7 8 9 10 11 12 13 14 15 16 17 18 19 20 21 22 23 24 25 26 27 28 29 30 31 32 33 34 35 36 37 38 39 40 41 42 43 44 45 46 47 48 49 50

000
ASUS43 KFSD 240602
RWRFSD

WEATHER ROUNDUP FOR SE SOUTH DAKOTA/SW MINNESOTA/NW IOWA
NATIONAL WEATHER SERVICE SIOUX FALLS SD
100 AM CDT THU APR 24 2014

NOTE: "FAIR" INDICATES FEW OR NO CLOUDS BELOW 12,000 FEET WITH NO
SIGNIFICANT WEATHER AND OR OBSTRUCTIONS TO VISIBILITY.


SDZ038>040-050-052>070-240700-
SOUTHEAST SOUTH DAKOTA

CITY           SKY/WX    TMP DP  RH WIND       PRES   REMARKS
CHAMBERLAIN      N/A     54  39  57 N13       29.71S
6HR MIN TEMP:  54; 6HR MAX TEMP:  74;

HURON          CLOUDY    50  40  68 SE9       29.69S
6HR MIN TEMP:  50; 6HR MAX TEMP:  67;

MADISON        FAIR      43  43 100 SE14      29.69F
MITCHELL       CLOUDY    49  42  77 SE8       29.67R
6HR MIN TEMP:  49; 6HR MAX TEMP:  68; 6HR PCP: TRACE;

SIOUX FALLS    CLOUDY    47  40  76 E13       29.68F
6HR MIN TEMP:  47; 6HR MAX TEMP:  59; 6HR PCP: TRACE;

WINNER         FAIR      53  38  56 NW13      29.75S
YANKTON        FAIR      50  45  81 SE7       29.66R
$$

MNZ071-072-080-081-089-090-097-098-240700-
SOUTHWEST MINNESOTA

CITY           SKY/WX    TMP DP  RH WIND       PRES   REMARKS
FAIRMONT       CLOUDY    45  37  76 SE22      29.80F
JACKSON        LGT RAIN  43  37  81 SE21G29   29.74F
LUVERNE        CLOUDY    46  41  81 SE12      29.72S
MARSHALL       MOCLDY    45  36  70 SE15G22   29.77S
6HR MIN TEMP:  45; 6HR MAX TEMP:  48;

MONTEVIDEO     CLOUDY    43  39  87 S18       29.80S
PIPESTONE      CLOUDY    45  39  81 SE15      29.70F
REDWOOD FALLS  CLOUDY    44  37  76 E13       29.81S
TRACY          CLOUDY    44  38  79 SE10      29.77F
WINDOM         CLOUDY    43  39  87 E14G21    29.78R
WORTHINGTON    MOCLDY    43  36  75 SE12      29.75R
$$

IAZ001>003-012>014-020>022-031-032-NEZ013-014-SDZ071-240700-
NORTHWEST IOWA

CITY           SKY/WX    TMP DP  RH WIND       PRES   REMARKS
DENISON        CLOUDY    48  43  81 E10G16    29.69F
ESTHERVILLE    FAIR      42  41  96 SE18      29.76F
SHELDON        FAIR      46  43  87 SE12      29.67F
SIOUX CITY     LGT RAIN  50  48  93 SE32G43   29.60F
6HR MIN TEMP:  50; 6HR MAX TEMP:  60; 6HR PCP:  0.14;

SPENCER        LGT RAIN  46  41  82 SE22G29   29.71F
6HR MIN TEMP:  44; 6HR MAX TEMP:  49; 6HR PCP:  0.03;

STORM LAKE     LGT RAIN  46  45  93 SE18      29.77R
$$

ABBREVIATIONS USED IN REMARKS
   TC - TEMPERATURE IN CELSIUS
  WCI - WIND CHILL INDEX
   HX - HEAT INDEX
  VSB - VISIBILITY




USA.gov is the U.S. government's official web portal to all federal, state and local government web resources and services.